Regional Weather Roundup
Issued by NWS

Home | Current Version | Previous Version | Text Only | Print | Product List | Glossary On
Versions: 1 2 3 4 5 6 7 8 9 10 11 12 13 14 15 16 17 18 19 20 21 22 23 24 25 26 27 28 29 30 31 32 33 34 35 36 37 38 39 40 41 42 43 44 45 46 47 48 49 50
000
ASHW40 PHFO 240243
RWRHI

WEATHER ROUNDUP FOR HAWAII
NATIONAL WEATHER SERVICE HONOLULU HI
400 PM HST THU MAR 23 2017

THIS IS AN AUTOMATED REPORT THAT HAS NOT BEEN QUALITY CONTROLLED.

NOTE..."FAIR" INDICATES FEW OR NO CLOUDS BELOW 12,000 FEET WITH NO
SIGNIFICANT WEATHER AND/OR OBSTRUCTIONS TO VISIBILITY.

* - THESE SITES REPORT LIMITED FIELDS

HIZ001>004-240300-
KAUAI-NIIHAU-

CITY           SKY/WX    TMP DP  RH WIND       PRES   REMARKS
LIHUE APT      MOSUNNY   79  68  69 E8        30.09F
PORT ALLEN*      N/A     81 N/A N/A SE17        N/A
POIPU*           N/A     81 N/A N/A E8G15       N/A
PRINCEVILLE*     N/A     79 N/A N/A E10G17      N/A
KOKOLE POINT*  NOT AVBL
MOLOAA DAIRY*    N/A     79  68  69 SE9G16      N/A
WAIMEA HTS*      N/A     84  66  54 SE8G15      N/A
PUU OPAE*      NOT AVBL
PUU LUA*       NOT AVBL
MAKAHA RIDGE*    N/A     79  59  50 SW3         N/A
$$

HIZ005>011-240300-
OAHU-

CITY           SKY/WX    TMP DP  RH WIND       PRES   REMARKS
HONOLULU       MOSUNNY   84  64  50 NE12      30.06S
KALAELOA       SUNNY     82  69  64 SE9G20    30.07F
KANEOHE MCB    PTSUNNY   81  70  69 NE10      30.06S
WHEELER FIELD  FAIR      80  65  60 E6        30.08
BELLOWS*         N/A    N/A N/A N/A NE14        N/A
KAHUKU*          N/A    N/A N/A N/A NE9G18      N/A
WHEELER*         N/A    N/A N/A N/A E7G14       N/A
WAIANAE HARBOR   N/A    N/A N/A N/A W8          N/A
DILLINGHAM*      N/A     88  70  55 SE3         N/A  HX  92
KAHUKU TRN*      N/A     81  70  69 W9G20       N/A
KAWAILOA*        N/A     79  64  61 NE10G18     N/A
KII*             N/A     79  68  69 E14         N/A
MAKUA RANGE*     N/A     66  52  59 E5          N/A
OAHU FOREST NW NOT AVBL
SCHOFIELD BRK* NOT AVBL
SCHOFIELD S*   NOT AVBL
WAIANAE VLY*   NOT AVBL
KUAOKALA*      NOT AVBL
HONOULIUULI*   NOT AVBL
MOKUOLOE IS*   NOT AVBL
PALEHUA*       NOT AVBL
WAIAWA PHB*    NOT AVBL
$$

HIZ012>013-240300-
MOLOKAI-

CITY           SKY/WX    TMP DP  RH WIND       PRES   REMARKS
MOLOKAI AIRPT    N/A     80  68  66 NE8G18    30.08S
KALAUPAPA      NOT AVBL
MAKAPULAPAI*     N/A     81  68  65 E17G23      N/A
MOLOKAI 1*     NOT AVBL
PUU ALII*        N/A     66  62  88 NE2         N/A
$$

HIZ016-240300-
KAHOOLAWE-

CITY           SKY/WX    TMP DP  RH WIND       PRES   REMARKS
KAHOOLAWE*     NOT AVBL
HAKIOAWA*        N/A     78  70  76 MISG      30.49S
HONOKANAIA*      N/A     83  67  58 E13G24      N/A
KANELOA*         N/A     79  70  73 E18G32    30.14S
KEALIALALO*    NOT AVBL
LUA MAKIKA*    NOT AVBL
$$

HIZ014>015-240300-
LANAI-

CITY           SKY/WX    TMP DP  RH WIND       PRES   REMARKS
LANAI CITY     FAIR      75  66  73 NE21G28   30.12S
LANAI 1*       NOT AVBL
$$

HIZ017>028-240300-
MAUI-

CITY           SKY/WX    TMP DP  RH WIND       PRES   REMARKS
KAHULUI        MOSUNNY   81  68  64 NE16      30.05S
KAPALUA-W MAUI PTSUNNY   81  68  65 N17G28    30.07F
HANA AIRPORT   LGT RAIN  77  70  78 E8        30.12R
HANA*            N/A     77 N/A N/A E8G16       N/A
HALEAKALA SUMM   N/A     57  25  28 S5G22       N/A
MAALAEA BAY*     N/A     82 N/A N/A NW12G20     N/A
HALEAKALA*     NOT AVBL
KAUPO GAP*       N/A     84  68  58 SE6G13      N/A
KULA 1*          N/A     61  56  84 W3G9        N/A
$$

HIZ023>026-240300-
BIG ISLAND OF HAWAII COAST AND LOWER SLOPES-

CITY           SKY/WX    TMP DP  RH WIND       PRES   REMARKS
KAILUA KONA    PTSUNNY   81  68  64 SW9       30.03F
HILO           PTSUNNY   81  70  69 E13       30.08S
HONOKAA*         N/A     72 N/A N/A VRB1        N/A
KAWAIHAE MWT*    N/A     84 N/A N/A SW9         N/A
KAWAIHAE*        N/A     81 N/A N/A SW9       30.06R
SOUTH POINT*     N/A     77 N/A N/A N20G29      N/A
UPOLU AIRPORT* NOT AVBL
KAMUELA*       PTCLDY    79  57  47 W6        30.17R
HAKALAU*         N/A     63  56  77 S6G18       N/A
KALOKO-HONOKO*   N/A     82  70  65 W7        30.03S
PALI 2*          N/A     73  66  78 W13G24      N/A
KEALAKOMO*     NOT AVBL
KAUPULEHU*       N/A    N/A N/A N/A MISG        N/A
KAPAPALA*        N/A     75  68  78 E6G14       N/A
LOWER KAHUKU*    N/A     66  64  94 NE3G13      N/A
PUHE CS*         N/A     84  63  48 S3G9        N/A
PUHO CS*         N/A     85  64  49 W3G10       N/A
PTA KEAMUKU*     N/A     73  55  53 CALM        N/A
WAIKOLOA*        N/A    N/A N/A N/A W8G17       N/A
$$

HIZ027>028-240300-
BIG ISLAND OF HAWAII INTERIOR AND SUMMMITS-

CITY           SKY/WX    TMP DP  RH WIND       PRES   REMARKS
BRADSHAW FIELD PTSUNNY   64  54  68 W7        30.39R
MK VISITOR CEN   N/A     50  43  76 S8          N/A
MAUNA KEA*       N/A     37  28  70 CALM        N/A
MAUNA LOA*       N/A     46  39  76 MISG        N/A
MAUNA LOA 1*   NOT AVBL
PTA KIPUKA*      N/A     70  52  52 N7G16       N/A
PTA RANGE 17*    N/A     68  52  56 W9G21       N/A
PTA WEST*        N/A     70  54  56 NW10G18     N/A
NENE CABIN*      N/A     61  52  72 E10G17      N/A
AHUMOA*          N/A     58  54  86 W3G14       N/A
PTA PORTABLE*  NOT AVBL
PUU MALI*        N/A     63  57  82 N3G15       N/A
$$

HIC003-240300-
NORTHWEST ISLANDS-

CITY           SKY/WX    TMP DP  RH WIND       PRES   REMARKS
MIDWAY ISLAND  LGT RAIN  66  66 100 W15G21    29.84R FOG
MIDWAY NOS*      N/A     68 N/A N/A MISG      29.83R
FRENCH FRIGATE NOT AVBL
$$

PHZ110>124-180-240300-
BUOY REPORTS

STATION/POSITION TIME  TEMP    WIND        PRES    WAVE   SWELL
                       AIR SEA DIR/SP/G            HT/PER HT/DIR
                 (UTC) (F)     (DEG/KT/KT) (MB)    (FT/S) (FT/D)
BUOY 51001       0230   75 77  140/  8/ 10 1018.3F
BUOY 51101       0150   76 77  130/  8/ 10 1019.0F   5/12   5/300
BUOY 51100       NOT AVBL
BUOY 51002       0230   78 79   80/ 12/ 16 1016.0S
BUOY 51003       0150   77 78   60/ 12/ 14 1017.0F   6/14   5/300
BUOY 51004       0150      78   70/ 10/ 12 1017.2F   7/ 8   7/ 90
BARBERS PT BUOY  NOT AVBL
WAIMEA BAY BUOY  0202      75                N/A     5/13   3/300
KAILUA BAY BUOY  0204      77                N/A     5/ 6   2/360
LANAI BUOY       0215      79                N/A     3/13   2/270
BARBERS PT 2     NOT AVBL
PAUWELA MAUI     0209      77                N/A     5/13   2/310
HILO             0212      78                N/A     5/ 8   2/330
KANEOHE BAY BUOY 0225      76                N/A     4/ 6   2/350
HANALEI KAUAI    0222      78                N/A     6/13   3/310
KAHULUI HARBOR   0218           50/ 14/ 19   N/A
HONOLULU HARBOR  0218           50/ 10/ 14   N/A
KILO NALU        NOT AVBL
HILO HARBOR      0218           90/  9/ 12   N/A
MOKUOLOE         0136   78 79   90/  7/ 10 1018.7F
NAWILIWILI       0212   77 81   80/  8/  9 1018.4
WHOTS BUOY       NOT AVBL
BUOY 51028       NOT AVBL
$$

......................KEY........................................
  SKY/WX - SKY CONDITIONS/PRESENT WEATHER
  TMP    - TEMPERATURE IN FAHRENHEIT
  DWPT   - DEWPOINT IN FAHRENHEIT
  RH     - RELATIVE HUMIDITY IN PERCENT
  WIND   - DIRECTION AND SPEED /MPH FOR ISLANDS...KTS FOR BUOYS/
  PRES   - MEAN SEA LEVEL PRESSURE IN INCHES OF HG
  VSB    - VISIBILITY IN MILES
  HX     - HEAT INDEX
  WCI    - WIND CHILL INDEX
  VRB    - VARIABLE WIND DIRECTION
  N/A    - NOT AVAILABLE




USA.gov is the U.S. government's official web portal to all federal, state and local government web resources and services.